Regional Weather Roundup
Issued by NWS Sterling, VA

Home | Current Version | Previous Version | Graphics & Text | Print | Product List | Glossary On
Versions: 1 2 3 4 5 6 7 8 9 10 11 12 13 14 15 16 17 18 19 20 21 22 23 24 25 26 27 28 29 30 31 32 33 34 35 36 37 38 39 40 41 42 43 44 45 46 47 48 49 50
933
ASUS41 KLWX 260011
RWRLWX

REGIONAL WEATHER ROUNDUP
NATIONAL WEATHER SERVICE BALTIMORE MD/WASHINGTON DC
800 PM EDT THU MAY 25 2017

Note: "FAIR" indicates few or no clouds below 12,000 feet
with no significant weather and/or obstructions to visibility.
 TC=TEMPERATURE CELSIUS

 * =Non NWS site. Station does not report precipitation (e.g. rain,
    snow, etc.), thunder, or fog.

DCZ001-MDZ009-015-VAZ040>042-051-053>054-260100-
WASHINGTON METRO

CITY           SKY/WX    TMP DP  RH WIND       PRES   REMARKS
WASHINGTON NAT LGT RAIN  62  60  93 W8        29.51R
DULLES         LGT RAIN  58  56  93 SE7       29.48F FOG
ANDREWS AFB    CLOUDY    60  58  93 W12       29.50R
FT BELVOIR     LGT RAIN  62  58  90 NW3       29.50R
QUANTICO       TSTM      62  62 100 N6        29.52S
COLLEGE PARK*  CLOUDY    60  57  91 CALM      29.48R
LEESBURG*      CLOUDY    61  61 100 CALM      29.49F
MANASSAS*      RAIN      60  57  89 E6        29.49F
GAITHERSBURG*  LGT RAIN  57  57 100 CALM      29.47F

$$

MDZ006>007-011-014-260100-
BALTIMORE METRO

CITY           SKY/WX    TMP DP  RH WIND       PRES   REMARKS
BWI AIRPORT    TSTM      59  58  96 NW6       29.46F
MD SCIENCE CTR   N/A     61  58  90 MISG      29.42F
MARTIN STATE   TSTM      61  61 100 W16       29.50R
ANNAPOLIS      CLOUDY    62  59  90 SW9       29.47R
FORT MEADE*    CLOUDY    59  55  88 NW6       29.49S

$$

MDZ012-015-019>023-260100-
MARYLAND EASTERN SHORE

CITY           SKY/WX    TMP DP  RH WIND       PRES   REMARKS
OCEAN CITY     LGT RAIN  64  58  80 W14G23    29.50R
SALISBURY      RAIN      60  60 100 S7        29.50R
BAY BRIDGE AP* CLOUDY    61  57  88 NE3       29.48R
CAMBRIDGE*     MOCLDY    63  57  82 CALM      29.49S
EASTON*        MOCLDY    61  57  88 S3        29.53R

$$

MDZ017>025-260100-
SOUTHERN MARYLAND

CITY           SKY/WX    TMP DP  RH WIND       PRES   REMARKS
PATUXENT RIVER MOCLDY    63  61  93 S5        29.49R
ST INIGOES     CLOUDY    66  59  78 SW7       29.50R
LEONARDTOWN*   CLOUDY    61  59  94 CALM      29.51R

$$

MDZ003>005-260100-
NORTH CENTRAL MARYLAND

CITY           SKY/WX    TMP DP  RH WIND       PRES   REMARKS
FREDERICK*     CLOUDY    63  63 100 CALM      29.50F
HAGERSTOWN APT CLOUDY    63  60  90 N6        29.48F
WESTMINSTER*   RAIN      61  59  94 W7        29.49S

$$

MDZ501>502-260100-
WESTERN MARYLAND

CITY           SKY/WX    TMP DP  RH WIND       PRES   REMARKS
OAKLAND*       MOCLDY    52  48  87 SW6       29.57R
CUMBERLAND*    PTCLDY    64  61  88 SE6       29.55R

$$

VAZ025>031-260100-
SHENANDOAH VALLEY

CITY           SKY/WX    TMP DP  RH WIND       PRES   REMARKS
WINCHESTER*    CLOUDY    59  59 100 SW3       29.50R
FRONT ROYAL*   CLOUDY    59  59 100 SW3       29.51R
LURAY*         LGT RAIN  57  57 100 CALM      29.54R
NEW MARKET*    MOCLDY    59  55  87 CALM      29.53R
STAUNTON*      CLOUDY    62  50  65 SW8       29.56R
WAYNESBORO*    CLOUDY    60  53  75 W6        29.55R

$$

WVZ021-048>050-054>055-260100-
EASTERN WEST VIRGINIA PANHANDLE

CITY           SKY/WX    TMP DP  RH WIND       PRES   REMARKS
MARTINSBURG    CLOUDY    61  59  93 SW3       29.48S
PETERSBURG*    MOCLDY    64  51  64 CALM      29.55R

$$

VAZ036>039-050-260100-
CENTRAL FOOTHILLS

CITY           SKY/WX    TMP DP  RH WIND       PRES   REMARKS
CHARLOTTESVILL CLEAR     67  52  58 VRB6      29.51R
CULPEPER*      LGT RAIN  60  58  94 CALM      29.52S
ORANGE*        LGT RAIN  57  55  94 CALM      29.51S
GORDONSVILLE*  MOCLDY    63  58  82 CALM      29.51R
WARRENTON*     LGT RAIN  59  55  88 SE3       29.49F

$$

VAZ055>057-260100-
NORTH AND CENTRAL PIEDMONT

CITY           SKY/WX    TMP DP  RH WIND       PRES   REMARKS
FREDERICKSBRG* MOCLDY    64  61  90 NW6       29.51R
STAFFORD*      CLOUDY    60  60  99 NW5       29.56R

$$

NCZ024-NYZ072-PAZ021-071-VAZ022-071-260100-
OTHER REGIONAL OBSERVATIONS

CITY           SKY/WX    TMP DP  RH WIND       PRES   REMARKS
NEW YORK CITY  CLOUDY    57  56  96 E8G18     29.55F FOG
PHILADELPHIA   CLOUDY    63  60  90 NE9G22    29.47R
PITTSBURGH     CLOUDY    60  55  83 W9        29.52R
ROANOKE        CLOUDY    59  55  87 SW10      29.62R
RICHMOND       MOCLDY    66  55  67 SW17G25   29.52R
RALEIGH        CLOUDY    63  60  90 SW7       29.64R

$$

ANZ530>537-260100-
MARINE OBSERVATIONS

STATION/POSITION TIME  TEMP    WIND        PRES
                       AIR SEA DIR/SP/G
                 (UTC) (F)     (DEG/KT/KT) (MB)
THOMAS PT LIGHT  0000   61 65  260/ 10/ 11   N/A
BALT KEY BRIDGE  2348   60     300/ 13/ 15  997.6R
COVE POINT       2348   61     230/  4/  8  999.3R
LEWISETTA        2348   65 68  240/  8/ 10  998.8R
SOLOMONS ISLAND  2348   63 66  160/  2/  3   N/A
PINEY POINT      2342          240/  6/  7   N/A

$$





USA.gov is the U.S. government's official web portal to all federal, state and local government web resources and services.